Location: Flotzheim
(48.8375°N, 10.8136°E)
Time: 17:07:57
(UTC+00:00)

Cosmos 1538 Rocket - Pass Details

Date: 23 January 2021
Orbit: 753 x 791 km, 74.0° (Epoch: 28 February)

Event Time Altitude Azimuth Distance (km) Brightness Sun altitude
Rises 17:01:53 0° 335° (NNW) 3,219 7.3 -10.1°
Reaches altitude 10° 17:04:16 10° 333° (NNW) 2,288 6.6 -10.5°
Maximum altitude 17:09:25 69° 251° (WSW) 808 4.4 -11.3°
Drops below altitude 10° 17:14:32 10° 169° (SSE) 2,275 6.5 -12.1°
Sets 17:16:53 0° 167° (SSE) 3,199 7.2 -12.5°
